Погода в Октябре

Россия / Ярославская область     57°49′29″N   37°23′18″E
темп.,
°C
ветер,
м/с
пор.,
м/с
влажн.,
%
обл.,
%
осадки,
мм/ч
давл.,
гПа
погр.,
м
15 апреля, чт
чт1500:00+10ссв599498 0.4 1019396
03:00+7ссв51090100 0.4 1020391
06:00+6ссв51190100 0.0 1020420
09:00+7св61082100 0.0 1021490
12:00+9св71077100 0.0 1022651
15:00+9св81074100 0.0 1022697
18:00+7св71180100 0.0 1023609
21:00+6св61380100 0.0 1024557
16 апреля, пт
пт1600:00+5св61481100 0.0 1024534
03:00+4всв61383100 0.0 1025483
06:00+3всв61384100 0.0 1025442
09:00+6всв71169100 0.0 1026546
12:00+10всв795796 0.0 1026816
15:00+12всв785186 0.0 10261092
18:00+11всв694849 0.0 1026940
21:00+7св5135759 0.0 1028350
17 апреля, сб
сб1700:00+5всв5136446 0.0 1028380
03:00+3всв5137147 0.0 1029318
06:00+2всв5137431 0.0 1030333
09:00+7всв611545 0.0 1030618
12:00+11всв78395 0.0 10301173
15:00+12всв68365 0.0 10291421
18:00+11св58450 0.0 1029755
21:00+6св49660 0.0 1030176
18 апреля, вс
вс1800:00+4св39740 0.0 1030171
03:00+3св37790 0.0 1031127
06:00+2св36814 0.0 1032112
09:00+7всв465881 0.0 1032433
12:00+11всв4543100 0.0 10321360
15:00+12всв4542100 0.0 10311583
18:00+11св4752100 0.0 1031554
21:00+7всв3867100 0.0 1032151
19 апреля, пн
пн1900:00+6в3671100 0.0 1033125
03:00+4в388294 0.0 1034175
06:00+4вюв3885100 0.0 1034240
09:00+7вюв5767100 0.0 1034480
12:00+9вюв5656100 0.0 1034939
15:00+10юв564794 0.0 10331198
18:00+9юв56477 0.0 10331170
21:00+5вюв4105550 0.0 1033242